Precipitable_Water
0.72 0.71 0.70 0.69 0.69 0.67 0.65 0.64 0.64 0.64 0.62 0.62 0.62 0.62 0.61 0.61 0.60 0.60 0.59 0.58 0.58 0.58 0.57 0.57 0.56 0.56 0.55 0.55 0.55 0.53 0.52 0.43 0.34 0.31 0.30 0.30 0.38 0.42 0.44 0.46 0.48 0.52 0.53 0.46 0.39 0.33 0.26 0.23 0.17 0.21 0.21 0.21 0.20 0.18 0.19 0.22 0.23 0.21 0.15 0.13 0.11 0.11 0.11 0.12 0.14 0.15 0.18 0.16 0.16 0.19 0.22 0.19 0.17 0.21 0.25 0.26 0.25 0.26 0.25 0.22 0.22 0.38 0.47 0.41 0.42 0.60 0.71 0.97
0.71 0.70 0.69 0.68 0.66 0.65 0.64 0.63 0.62 0.62 0.62 0.62 0.61 0.62 0.61 0.61 0.61 0.60 0.60 0.59 0.58 0.57 0.57 0.56 0.56 0.56 0.56 0.55 0.55 0.53 0.49 0.41 0.32 0.33 0.34 0.51 0.53 0.52 0.51 0.50 0.52 0.54 0.51 0.38 0.32 0.29 0.23 0.19 0.20 0.25 0.27 0.21 0.25 0.19 0.19 0.17 0.19 0.16 0.14 0.13 0.10 0.11 0.12 0.15 0.16 0.17 0.16 0.16 0.18 0.20 0.22 0.22 0.22 0.21 0.25 0.23 0.23 0.23 0.22 0.23 0.23 0.24 0.40 0.40 0.32 0.68 0.86 0.87
0.71 0.70 0.68 0.67 0.66 0.65 0.64 0.63 0.63 0.62 0.61 0.62 0.61 0.61 0.61 0.60 0.60 0.60 0.59 0.58 0.58 0.57 0.56 0.57 0.57 0.56 0.56 0.56 0.55 0.54 0.47 0.36 0.34 0.31 0.42 0.61 0.56 0.55 0.52 0.51 0.50 0.50 0.43 0.36 0.37 0.33 0.27 0.24 0.24 0.28 0.31 0.27 0.29 0.22 0.21 0.17 0.15 0.16 0.14 0.11 0.11 0.12 0.13 0.16 0.17 0.16 0.17 0.18 0.18 0.18 0.20 0.20 0.22 0.21 0.24 0.21 0.23 0.24 0.21 0.21 0.22 0.23 0.33 0.45 0.59 0.56 0.89 0.91
0.71 0.70 0.69 0.68 0.67 0.66 0.64 0.63 0.63 0.62 0.61 0.61 0.61 0.61 0.61 0.61 0.60 0.60 0.59 0.58 0.57 0.57 0.56 0.56 0.57 0.56 0.56 0.55 0.55 0.54 0.45 0.32 0.28 0.43 0.60 0.54 0.51 0.50 0.47 0.47 0.44 0.44 0.41 0.37 0.37 0.34 0.31 0.27 0.30 0.33 0.31 0.25 0.26 0.26 0.23 0.22 0.15 0.14 0.14 0.11 0.11 0.13 0.13 0.14 0.15 0.16 0.18 0.19 0.17 0.18 0.20 0.20 0.21 0.22 0.20 0.20 0.20 0.22 0.23 0.25 0.24 0.24 0.34 0.47 0.64 0.97 1.13 1.16
0.72 0.71 0.70 0.69 0.67 0.66 0.64 0.63 0.61 0.60 0.60 0.60 0.60 0.60 0.61 0.60 0.60 0.59 0.58 0.57 0.57 0.56 0.56 0.56 0.56 0.57 0.57 0.57 0.54 0.54 0.38 0.19 0.35 0.53 0.54 0.51 0.49 0.50 0.46 0.43 0.38 0.35 0.31 0.31 0.30 0.28 0.26 0.27 0.32 0.32 0.29 0.23 0.22 0.22 0.21 0.24 0.22 0.18 0.13 0.13 0.13 0.14 0.13 0.13 0.14 0.15 0.16 0.18 0.17 0.17 0.18 0.18 0.22 0.22 0.20 0.19 0.18 0.18 0.21 0.26 0.27 0.29 0.36 0.50 0.45 0.91 1.05 1.14
0.72 0.71 0.69 0.68 0.66 0.65 0.63 0.61 0.59 0.58 0.59 0.59 0.59 0.59 0.59 0.59 0.59 0.58 0.57 0.57 0.57 0.57 0.56 0.56 0.57 0.57 0.58 0.57 0.53 0.48 0.31 0.08 0.41 0.38 0.51 0.52 0.47 0.43 0.42 0.39 0.37 0.34 0.33 0.28 0.26 0.28 0.29 0.31 0.33 0.29 0.25 0.20 0.20 0.19 0.21 0.22 0.24 0.16 0.16 0.15 0.15 0.14 0.13 0.13 0.14 0.15 0.15 0.14 0.14 0.14 0.16 0.20 0.20 0.21 0.23 0.22 0.20 0.21 0.22 0.24 0.28 0.32 0.37 0.45 0.48 0.62 0.93 1.14
0.71 0.70 0.69 0.66 0.64 0.62 0.61 0.59 0.57 0.57 0.59 0.58 0.57 0.58 0.58 0.58 0.58 0.57 0.57 0.57 0.57 0.57 0.57 0.57 0.57 0.58 0.56 0.55 0.52 0.39 0.26 0.22 0.34 0.47 0.53 0.50 0.47 0.43 0.41 0.41 0.42 0.35 0.33 0.27 0.26 0.28 0.33 0.33 0.32 0.27 0.26 0.23 0.22 0.20 0.21 0.21 0.23 0.20 0.16 0.18 0.17 0.17 0.15 0.14 0.13 0.13 0.13 0.13 0.14 0.15 0.16 0.16 0.18 0.16 0.20 0.19 0.22 0.24 0.23 0.24 0.26 0.30 0.34 0.43 0.40 0.56 0.82 1.09
0.70 0.69 0.66 0.64 0.62 0.60 0.58 0.56 0.55 0.56 0.57 0.57 0.57 0.57 0.57 0.57 0.57 0.57 0.57 0.57 0.57 0.57 0.57 0.57 0.57 0.57 0.56 0.47 0.36 0.28 0.26 0.22 0.40 0.53 0.51 0.48 0.45 0.42 0.43 0.37 0.33 0.31 0.28 0.24 0.27 0.28 0.32 0.27 0.24 0.30 0.24 0.20 0.21 0.20 0.23 0.21 0.22 0.19 0.18 0.20 0.19 0.19 0.18 0.17 0.16 0.15 0.14 0.14 0.15 0.16 0.16 0.16 0.18 0.18 0.20 0.20 0.22 0.22 0.22 0.23 0.25 0.27 0.30 0.33 0.36 0.42 0.63 0.99
0.69 0.66 0.63 0.61 0.59 0.57 0.55 0.54 0.54 0.55 0.55 0.55 0.55 0.56 0.56 0.56 0.56 0.57 0.58 0.57 0.56 0.57 0.57 0.57 0.56 0.56 0.56 0.46 0.33 0.21 0.21 0.38 0.48 0.49 0.47 0.45 0.43 0.41 0.41 0.30 0.33 0.33 0.34 0.32 0.30 0.33 0.33 0.28 0.28 0.30 0.23 0.22 0.26 0.22 0.22 0.20 0.18 0.21 0.21 0.22 0.21 0.20 0.19 0.18 0.17 0.16 0.15 0.16 0.16 0.16 0.16 0.17 0.18 0.20 0.17 0.20 0.22 0.22 0.20 0.20 0.22 0.24 0.28 0.30 0.28 0.37 0.55 0.96
0.67 0.64 0.61 0.58 0.56 0.54 0.54 0.53 0.53 0.54 0.54 0.54 0.54 0.55 0.54 0.55 0.56 0.58 0.58 0.57 0.57 0.56 0.56 0.56 0.56 0.55 0.47 0.38 0.32 0.16 0.32 0.46 0.49 0.47 0.47 0.45 0.42 0.40 0.40 0.35 0.36 0.34 0.32 0.32 0.35 0.35 0.33 0.33 0.31 0.34 0.32 0.28 0.27 0.22 0.23 0.21 0.19 0.23 0.22 0.22 0.21 0.20 0.20 0.20 0.19 0.18 0.18 0.17 0.17 0.16 0.16 0.16 0.18 0.17 0.14 0.18 0.21 0.21 0.20 0.20 0.22 0.23 0.26 0.30 0.29 0.34 0.43 0.51
0.65 0.62 0.59 0.57 0.56 0.54 0.53 0.51 0.52 0.53 0.54 0.54 0.54 0.54 0.54 0.55 0.57 0.58 0.58 0.58 0.57 0.56 0.56 0.56 0.56 0.51 0.39 0.39 0.22 0.16 0.44 0.45 0.48 0.48 0.48 0.47 0.42 0.38 0.37 0.36 0.37 0.35 0.34 0.33 0.33 0.36 0.37 0.36 0.36 0.35 0.31 0.26 0.26 0.24 0.23 0.23 0.25 0.23 0.23 0.22 0.21 0.21 0.21 0.20 0.20 0.20 0.20 0.18 0.19 0.17 0.16 0.17 0.18 0.17 0.16 0.18 0.19 0.22 0.19 0.19 0.21 0.22 0.24 0.28 0.27 0.32 0.38 0.54
0.63 0.60 0.58 0.56 0.54 0.53 0.51 0.50 0.51 0.53 0.54 0.55 0.54 0.53 0.55 0.56 0.58 0.59 0.59 0.60 0.56 0.57 0.58 0.58 0.56 0.52 0.47 0.37 0.30 0.30 0.46 0.50 0.50 0.50 0.50 0.48 0.43 0.40 0.41 0.42 0.39 0.36 0.34 0.31 0.33 0.37 0.38 0.38 0.38 0.34 0.25 0.33 0.23 0.26 0.23 0.26 0.25 0.24 0.24 0.19 0.20 0.20 0.19 0.20 0.20 0.21 0.21 0.18 0.20 0.20 0.17 0.15 0.16 0.15 0.18 0.19 0.19 0.19 0.20 0.18 0.18 0.21 0.23 0.25 0.26 0.28 0.37 0.38
0.61 0.58 0.56 0.54 0.53 0.51 0.49 0.50 0.53 0.54 0.54 0.54 0.53 0.55 0.56 0.57 0.58 0.59 0.59 0.59 0.58 0.57 0.62 0.62 0.60 0.60 0.49 0.30 0.36 0.49 0.56 0.57 0.58 0.54 0.48 0.51 0.47 0.46 0.46 0.45 0.43 0.41 0.39 0.36 0.33 0.37 0.40 0.40 0.38 0.33 0.34 0.30 0.27 0.22 0.26 0.27 0.26 0.25 0.23 0.21 0.18 0.18 0.17 0.19 0.22 0.22 0.21 0.20 0.21 0.21 0.13 0.13 0.15 0.17 0.18 0.19 0.17 0.16 0.18 0.18 0.17 0.19 0.21 0.24 0.25 0.24 0.30 0.35
0.61 0.57 0.55 0.53 0.51 0.50 0.50 0.51 0.53 0.53 0.54 0.53 0.55 0.57 0.58 0.59 0.58 0.57 0.59 0.58 0.60 0.61 0.65 0.67 0.63 0.60 0.51 0.35 0.46 0.59 0.64 0.63 0.60 0.50 0.47 0.49 0.46 0.45 0.46 0.47 0.48 0.46 0.45 0.42 0.40 0.38 0.40 0.41 0.38 0.35 0.35 0.30 0.27 0.34 0.27 0.25 0.26 0.20 0.22 0.21 0.17 0.16 0.14 0.19 0.21 0.22 0.19 0.21 0.21 0.21 0.14 0.13 0.15 0.16 0.17 0.18 0.18 0.15 0.13 0.17 0.16 0.18 0.20 0.23 0.23 0.23 0.24 0.27
0.60 0.57 0.54 0.52 0.50 0.50 0.51 0.53 0.53 0.54 0.55 0.57 0.59 0.59 0.59 0.55 0.54 0.57 0.62 0.63 0.61 0.64 0.64 0.69 0.66 0.54 0.42 0.41 0.57 0.63 0.65 0.68 0.53 0.47 0.48 0.44 0.44 0.44 0.45 0.47 0.46 0.47 0.47 0.46 0.44 0.45 0.42 0.40 0.37 0.31 0.29 0.34 0.33 0.27 0.23 0.22 0.22 0.22 0.18 0.14 0.18 0.16 0.15 0.19 0.22 0.22 0.18 0.19 0.22 0.21 0.16 0.14 0.13 0.12 0.15 0.18 0.18 0.16 0.12 0.13 0.16 0.16 0.19 0.21 0.22 0.22 0.23 0.24
0.60 0.57 0.54 0.51 0.50 0.50 0.52 0.54 0.55 0.57 0.59 0.59 0.59 0.59 0.58 0.54 0.54 0.58 0.63 0.63 0.64 0.61 0.62 0.56 0.58 0.54 0.44 0.33 0.44 0.62 0.52 0.45 0.45 0.51 0.51 0.49 0.46 0.43 0.47 0.48 0.49 0.48 0.48 0.46 0.48 0.46 0.44 0.39 0.31 0.31 0.30 0.32 0.28 0.24 0.21 0.19 0.19 0.20 0.18 0.15 0.15 0.16 0.16 0.17 0.20 0.21 0.21 0.20 0.21 0.21 0.16 0.14 0.12 0.12 0.14 0.18 0.19 0.15 0.13 0.12 0.15 0.16 0.17 0.19 0.21 0.21 0.22 0.23
0.60 0.57 0.53 0.50 0.49 0.51 0.54 0.55 0.58 0.60 0.61 0.60 0.58 0.56 0.57 0.55 0.54 0.60 0.61 0.62 0.57 0.57 0.55 0.46 0.59 0.60 0.32 0.48 0.62 0.46 0.42 0.47 0.53 0.50 0.49 0.52 0.50 0.48 0.48 0.47 0.45 0.45 0.47 0.47 0.46 0.43 0.41 0.36 0.36 0.34 0.33 0.28 0.27 0.26 0.20 0.17 0.16 0.17 0.19 0.16 0.17 0.15 0.16 0.15 0.18 0.19 0.19 0.19 0.17 0.19 0.16 0.13 0.13 0.14 0.15 0.17 0.16 0.14 0.13 0.12 0.13 0.15 0.16 0.17 0.19 0.20 0.21 0.24
0.59 0.56 0.53 0.50 0.48 0.51 0.54 0.56 0.58 0.60 0.61 0.60 0.57 0.54 0.50 0.54 0.57 0.61 0.60 0.61 0.59 0.58 0.55 0.59 0.57 0.46 0.42 0.51 0.33 0.38 0.48 0.48 0.48 0.48 0.49 0.53 0.53 0.51 0.48 0.45 0.47 0.46 0.44 0.42 0.44 0.37 0.39 0.33 0.35 0.28 0.30 0.29 0.28 0.25 0.20 0.16 0.18 0.16 0.16 0.16 0.16 0.18 0.18 0.16 0.15 0.19 0.21 0.22 0.18 0.18 0.17 0.15 0.16 0.16 0.16 0.16 0.16 0.15 0.13 0.12 0.12 0.14 0.15 0.16 0.18 0.19 0.20 0.23
0.59 0.56 0.52 0.48 0.47 0.51 0.54 0.57 0.60 0.61 0.61 0.60 0.57 0.57 0.55 0.56 0.57 0.58 0.51 0.50 0.42 0.36 0.32 0.36 0.40 0.26 0.23 0.36 0.46 0.48 0.49 0.51 0.51 0.49 0.46 0.50 0.53 0.53 0.52 0.51 0.48 0.45 0.39 0.37 0.37 0.37 0.37 0.33 0.32 0.28 0.24 0.26 0.27 0.27 0.24 0.24 0.25 0.22 0.22 0.21 0.21 0.18 0.19 0.20 0.22 0.26 0.25 0.23 0.21 0.20 0.17 0.16 0.16 0.17 0.17 0.16 0.16 0.15 0.14 0.13 0.13 0.14 0.15 0.17 0.17 0.18 0.20 0.23
0.59 0.55 0.51 0.48 0.48 0.49 0.53 0.57 0.60 0.61 0.61 0.56 0.51 0.47 0.43 0.32 0.33 0.33 0.44 0.46 0.37 0.35 0.35 0.36 0.46 0.45 0.48 0.46 0.43 0.50 0.56 0.53 0.43 0.47 0.49 0.53 0.51 0.50 0.48 0.48 0.46 0.46 0.41 0.35 0.37 0.38 0.38 0.27 0.24 0.24 0.26 0.29 0.31 0.32 0.32 0.31 0.30 0.29 0.28 0.26 0.23 0.23 0.22 0.26 0.25 0.28 0.32 0.29 0.25 0.23 0.20 0.19 0.18 0.18 0.18 0.17 0.16 0.16 0.15 0.14 0.14 0.14 0.15 0.16 0.18 0.18 0.20 0.24
0.58 0.54 0.50 0.48 0.48 0.48 0.51 0.57 0.60 0.62 0.64 0.60 0.53 0.41 0.27 0.30 0.22 0.21 0.32 0.36 0.43 0.45 0.42 0.44 0.47 0.47 0.44 0.47 0.49 0.47 0.41 0.43 0.47 0.46 0.48 0.57 0.53 0.48 0.44 0.46 0.41 0.37 0.39 0.41 0.38 0.42 0.38 0.28 0.26 0.29 0.31 0.32 0.34 0.34 0.34 0.35 0.35 0.32 0.30 0.28 0.25 0.25 0.22 0.26 0.26 0.29 0.32 0.29 0.24 0.25 0.22 0.20 0.20 0.18 0.17 0.17 0.16 0.16 0.16 0.15 0.14 0.14 0.15 0.16 0.17 0.18 0.19 0.23
0.57 0.53 0.50 0.47 0.47 0.48 0.50 0.56 0.59 0.63 0.65 0.59 0.50 0.36 0.39 0.40 0.43 0.48 0.43 0.32 0.39 0.45 0.45 0.45 0.51 0.49 0.54 0.51 0.54 0.51 0.49 0.40 0.41 0.46 0.54 0.56 0.50 0.44 0.45 0.42 0.39 0.36 0.41 0.41 0.40 0.37 0.34 0.29 0.31 0.35 0.37 0.37 0.36 0.35 0.36 0.34 0.32 0.33 0.30 0.29 0.27 0.26 0.28 0.28 0.28 0.30 0.33 0.30 0.25 0.26 0.23 0.23 0.22 0.21 0.19 0.17 0.17 0.17 0.18 0.16 0.15 0.15 0.14 0.14 0.16 0.18 0.19 0.21
0.56 0.52 0.49 0.46 0.46 0.47 0.51 0.57 0.60 0.63 0.59 0.49 0.41 0.40 0.39 0.48 0.56 0.57 0.56 0.44 0.37 0.47 0.47 0.46 0.45 0.48 0.49 0.52 0.52 0.52 0.42 0.40 0.38 0.47 0.51 0.54 0.49 0.47 0.48 0.45 0.42 0.43 0.43 0.44 0.36 0.35 0.31 0.33 0.38 0.41 0.41 0.39 0.38 0.37 0.36 0.36 0.36 0.34 0.32 0.28 0.25 0.30 0.28 0.22 0.25 0.30 0.32 0.30 0.26 0.26 0.23 0.23 0.24 0.23 0.20 0.20 0.19 0.18 0.19 0.19 0.17 0.16 0.15 0.14 0.15 0.17 0.18 0.19
0.53 0.51 0.49 0.46 0.47 0.46 0.53 0.58 0.64 0.60 0.49 0.47 0.46 0.42 0.51 0.56 0.58 0.60 0.52 0.35 0.33 0.40 0.47 0.48 0.49 0.49 0.46 0.43 0.50 0.47 0.43 0.44 0.46 0.47 0.64 0.58 0.52 0.58 0.51 0.51 0.44 0.45 0.43 0.44 0.43 0.39 0.36 0.40 0.45 0.42 0.42 0.40 0.36 0.37 0.36 0.35 0.31 0.36 0.34 0.32 0.29 0.30 0.31 0.30 0.28 0.31 0.32 0.32 0.31 0.27 0.23 0.20 0.21 0.20 0.20 0.22 0.22 0.21 0.20 0.20 0.19 0.18 0.18 0.17 0.17 0.16 0.17 0.18
0.54 0.51 0.49 0.47 0.46 0.49 0.52 0.59 0.52 0.48 0.51 0.46 0.45 0.52 0.56 0.58 0.61 0.64 0.48 0.39 0.38 0.37 0.53 0.51 0.51 0.52 0.48 0.61 0.54 0.45 0.46 0.50 0.53 0.59 0.64 0.61 0.57 0.54 0.53 0.57 0.49 0.42 0.45 0.46 0.44 0.43 0.40 0.46 0.48 0.43 0.43 0.42 0.39 0.35 0.36 0.35 0.30 0.30 0.34 0.35 0.35 0.36 0.33 0.33 0.33 0.31 0.27 0.23 0.27 0.27 0.19 0.16 0.19 0.20 0.20 0.20 0.22 0.21 0.21 0.20 0.18 0.18 0.17 0.17 0.16 0.15 0.16 0.17
0.53 0.50 0.48 0.47 0.48 0.49 0.54 0.46 0.44 0.49 0.44 0.36 0.41 0.51 0.57 0.59 0.64 0.68 0.49 0.28 0.20 0.32 0.45 0.32 0.50 0.42 0.54 0.44 0.48 0.49 0.52 0.44 0.58 0.62 0.66 0.65 0.68 0.57 0.55 0.48 0.50 0.38 0.44 0.45 0.43 0.42 0.41 0.48 0.47 0.43 0.41 0.39 0.38 0.36 0.38 0.37 0.30 0.28 0.28 0.36 0.36 0.37 0.37 0.34 0.32 0.31 0.23 0.19 0.26 0.33 0.22 0.16 0.20 0.19 0.20 0.20 0.20 0.20 0.21 0.20 0.19 0.18 0.18 0.17 0.17 0.16 0.15 0.15
0.54 0.50 0.48 0.48 0.50 0.51 0.40 0.35 0.50 0.46 0.31 0.34 0.45 0.54 0.57 0.64 0.72 0.67 0.44 0.22 0.16 0.31 0.31 0.38 0.42 0.40 0.52 0.45 0.49 0.53 0.34 0.41 0.60 0.62 0.62 0.67 0.57 0.70 0.46 0.44 0.51 0.52 0.52 0.51 0.41 0.35 0.45 0.45 0.44 0.44 0.41 0.38 0.35 0.32 0.38 0.38 0.33 0.28 0.37 0.38 0.37 0.35 0.34 0.34 0.33 0.31 0.28 0.32 0.30 0.30 0.28 0.19 0.16 0.18 0.21 0.22 0.20 0.20 0.20 0.20 0.20 0.19 0.19 0.18 0.17 0.17 0.16 0.16
0.53 0.51 0.51 0.49 0.50 0.52 0.42 0.47 0.44 0.35 0.34 0.41 0.51 0.58 0.63 0.68 0.73 0.66 0.39 0.12 0.09 0.35 0.30 0.36 0.39 0.51 0.48 0.49 0.55 0.46 0.46 0.54 0.44 0.50 0.63 0.63 0.65 0.59 0.52 0.45 0.43 0.44 0.49 0.45 0.27 0.44 0.43 0.39 0.40 0.39 0.39 0.36 0.33 0.36 0.42 0.43 0.35 0.34 0.40 0.40 0.36 0.35 0.34 0.36 0.34 0.30 0.30 0.27 0.22 0.26 0.28 0.21 0.17 0.17 0.23 0.24 0.20 0.19 0.19 0.19 0.20 0.20 0.20 0.19 0.19 0.17 0.16 0.17
0.55 0.52 0.53 0.52 0.51 0.53 0.54 0.46 0.45 0.37 0.47 0.53 0.57 0.64 0.67 0.69 0.60 0.41 0.22 0.10 0.18 0.35 0.45 0.34 0.51 0.45 0.44 0.52 0.48 0.48 0.48 0.52 0.41 0.49 0.59 0.63 0.66 0.57 0.43 0.47 0.47 0.46 0.49 0.45 0.33 0.36 0.42 0.41 0.40 0.41 0.37 0.32 0.37 0.40 0.42 0.41 0.33 0.39 0.42 0.42 0.40 0.38 0.36 0.34 0.31 0.30 0.30 0.27 0.19 0.21 0.26 0.20 0.15 0.16 0.19 0.23 0.22 0.20 0.19 0.19 0.20 0.21 0.21 0.21 0.20 0.18 0.17 0.17
0.58 0.52 0.54 0.55 0.53 0.53 0.48 0.52 0.45 0.52 0.57 0.62 0.61 0.62 0.70 0.58 0.40 0.18 0.10 0.08 0.23 0.22 0.30 0.35 0.35 0.34 0.46 0.41 0.41 0.45 0.42 0.46 0.50 0.51 0.52 0.48 0.54 0.58 0.53 0.59 0.44 0.42 0.41 0.47 0.40 0.36 0.36 0.44 0.46 0.39 0.33 0.34 0.37 0.40 0.41 0.40 0.40 0.45 0.41 0.38 0.37 0.36 0.35 0.34 0.32 0.29 0.26 0.20 0.16 0.19 0.24 0.22 0.14 0.14 0.17 0.18 0.19 0.20 0.20 0.21 0.21 0.21 0.22 0.22 0.21 0.20 0.18 0.18
0.61 0.54 0.54 0.59 0.47 0.49 0.48 0.38 0.43 0.54 0.59 0.62 0.62 0.59 0.59 0.41 0.19 0.13 0.09 0.14 0.27 0.24 0.33 0.31 0.30 0.42 0.36 0.35 0.31 0.42 0.43 0.45 0.46 0.48 0.40 0.45 0.44 0.49 0.47 0.45 0.48 0.38 0.36 0.34 0.30 0.30 0.31 0.31 0.33 0.35 0.39 0.39 0.39 0.34 0.39 0.41 0.42 0.39 0.35 0.33 0.33 0.30 0.33 0.31 0.29 0.30 0.20 0.15 0.14 0.17 0.22 0.23 0.17 0.14 0.17 0.20 0.22 0.23 0.22 0.20 0.20 0.21 0.21 0.21 0.21 0.21 0.20 0.19
0.63 0.57 0.55 0.57 0.57 0.58 0.40 0.35 0.47 0.57 0.59 0.61 0.56 0.47 0.40 0.19 0.20 0.11 0.11 0.27 0.16 0.22 0.26 0.26 0.34 0.36 0.34 0.38 0.36 0.37 0.39 0.43 0.46 0.44 0.36 0.35 0.37 0.38 0.39 0.31 0.33 0.22 0.18 0.21 0.19 0.28 0.23 0.25 0.30 0.35 0.41 0.36 0.36 0.31 0.32 0.36 0.37 0.35 0.35 0.33 0.25 0.21 0.22 0.18 0.23 0.19 0.18 0.14 0.15 0.21 0.23 0.21 0.20 0.17 0.15 0.19 0.20 0.20 0.21 0.21 0.20 0.20 0.20 0.21 0.21 0.21 0.21 0.21
0.66 0.63 0.57 0.58 0.62 0.54 0.51 0.50 0.54 0.55 0.58 0.56 0.46 0.41 0.23 0.12 0.09 0.15 0.16 0.20 0.18 0.29 0.26 0.34 0.31 0.33 0.34 0.35 0.35 0.41 0.45 0.37 0.45 0.43 0.40 0.38 0.37 0.39 0.42 0.39 0.39 0.32 0.19 0.25 0.24 0.22 0.22 0.29 0.31 0.34 0.36 0.41 0.36 0.25 0.24 0.23 0.30 0.30 0.27 0.26 0.22 0.17 0.15 0.12 0.14 0.18 0.17 0.18 0.19 0.20 0.23 0.18 0.19 0.19 0.17 0.15 0.17 0.19 0.20 0.21 0.21 0.22 0.21 0.21 0.21 0.22 0.22 0.22
0.65 0.64 0.54 0.57 0.60 0.60 0.55 0.55 0.52 0.56 0.50 0.47 0.37 0.24 0.17 0.10 0.12 0.23 0.21 0.22 0.23 0.32 0.33 0.29 0.34 0.34 0.35 0.31 0.36 0.43 0.34 0.42 0.42 0.40 0.40 0.34 0.36 0.30 0.35 0.40 0.41 0.34 0.34 0.31 0.23 0.24 0.19 0.18 0.26 0.30 0.27 0.41 0.37 0.32 0.29 0.26 0.25 0.25 0.30 0.26 0.21 0.19 0.15 0.11 0.13 0.11 0.12 0.13 0.17 0.22 0.17 0.15 0.13 0.12 0.14 0.15 0.18 0.21 0.22 0.22 0.23 0.24 0.23 0.22 0.22 0.23 0.23 0.23
0.65 0.62 0.56 0.56 0.58 0.62 0.58 0.54 0.53 0.54 0.50 0.40 0.29 0.18 0.11 0.13 0.19 0.18 0.21 0.23 0.27 0.30 0.29 0.35 0.32 0.30 0.30 0.36 0.40 0.45 0.42 0.35 0.43 0.41 0.36 0.32 0.29 0.31 0.30 0.32 0.39 0.42 0.39 0.27 0.30 0.31 0.26 0.25 0.30 0.37 0.37 0.41 0.35 0.39 0.38 0.33 0.28 0.29 0.30 0.29 0.22 0.17 0.22 0.15 0.15 0.16 0.15 0.15 0.14 0.16 0.16 0.18 0.16 0.20 0.21 0.20 0.21 0.21 0.22 0.22 0.22 0.22 0.22 0.22 0.21 0.22 0.22 0.23
0.65 0.57 0.58 0.50 0.52 0.55 0.57 0.52 0.52 0.54 0.45 0.33 0.21 0.14 0.14 0.19 0.17 0.24 0.23 0.31 0.30 0.26 0.29 0.32 0.32 0.28 0.29 0.32 0.39 0.40 0.50 0.39 0.40 0.41 0.36 0.35 0.34 0.30 0.37 0.37 0.37 0.43 0.37 0.30 0.34 0.25 0.29 0.23 0.34 0.37 0.40 0.39 0.38 0.41 0.40 0.39 0.22 0.28 0.27 0.21 0.20 0.27 0.24 0.19 0.19 0.21 0.20 0.17 0.12 0.16 0.16 0.18 0.21 0.21 0.20 0.19 0.20 0.20 0.20 0.20 0.19 0.19 0.20 0.20 0.20 0.20 0.22 0.23
0.59 0.60 0.45 0.51 0.53 0.57 0.58 0.53 0.55 0.48 0.44 0.30 0.19 0.15 0.20 0.25 0.28 0.27 0.30 0.28 0.29 0.31 0.30 0.22 0.26 0.27 0.26 0.28 0.33 0.37 0.40 0.44 0.40 0.39 0.30 0.37 0.31 0.35 0.36 0.38 0.45 0.43 0.46 0.42 0.33 0.41 0.28 0.26 0.35 0.35 0.32 0.39 0.43 0.42 0.41 0.41 0.38 0.32 0.24 0.24 0.29 0.32 0.30 0.23 0.15 0.17 0.15 0.12 0.11 0.14 0.11 0.11 0.13 0.10 0.14 0.16 0.16 0.17 0.18 0.18 0.18 0.18 0.18 0.18 0.19 0.19 0.21 0.23
0.58 0.58 0.50 0.48 0.51 0.57 0.55 0.54 0.52 0.47 0.36 0.24 0.17 0.20 0.25 0.24 0.31 0.30 0.33 0.31 0.31 0.33 0.28 0.26 0.28 0.33 0.27 0.31 0.31 0.36 0.39 0.36 0.35 0.38 0.31 0.35 0.28 0.40 0.37 0.37 0.45 0.44 0.47 0.52 0.39 0.39 0.42 0.27 0.30 0.37 0.36 0.39 0.44 0.44 0.40 0.43 0.44 0.34 0.29 0.35 0.24 0.19 0.19 0.23 0.21 0.14 0.13 0.12 0.12 0.14 0.14 0.13 0.13 0.12 0.13 0.13 0.13 0.13 0.14 0.16 0.17 0.18 0.19 0.20 0.20 0.22 0.27 0.30
0.60 0.54 0.39 0.46 0.56 0.54 0.56 0.54 0.47 0.39 0.26 0.19 0.18 0.18 0.24 0.28 0.32 0.31 0.33 0.33 0.34 0.31 0.27 0.30 0.27 0.32 0.34 0.32 0.35 0.38 0.38 0.32 0.37 0.34 0.29 0.32 0.28 0.38 0.38 0.42 0.39 0.47 0.50 0.52 0.44 0.45 0.46 0.30 0.30 0.40 0.38 0.42 0.43 0.42 0.31 0.36 0.44 0.42 0.40 0.33 0.34 0.28 0.23 0.20 0.20 0.20 0.19 0.15 0.15 0.14 0.17 0.13 0.17 0.16 0.17 0.15 0.15 0.15 0.17 0.22 0.22 0.23 0.23 0.24 0.24 0.24 0.25 0.28
0.50 0.47 0.37 0.52 0.61 0.57 0.56 0.51 0.39 0.31 0.23 0.17 0.19 0.22 0.28 0.27 0.30 0.33 0.34 0.32 0.31 0.30 0.29 0.29 0.33 0.31 0.35 0.36 0.39 0.34 0.39 0.38 0.37 0.35 0.35 0.35 0.33 0.42 0.38 0.48 0.41 0.43 0.49 0.52 0.47 0.52 0.41 0.46 0.27 0.36 0.45 0.45 0.34 0.40 0.36 0.39 0.36 0.37 0.35 0.31 0.33 0.31 0.32 0.28 0.27 0.23 0.20 0.17 0.17 0.16 0.15 0.17 0.21 0.25 0.24 0.22 0.19 0.18 0.19 0.22 0.26 0.29 0.28 0.27 0.26 0.25 0.25 0.28
0.58 0.45 0.41 0.55 0.59 0.59 0.55 0.41 0.28 0.23 0.21 0.25 0.26 0.24 0.27 0.25 0.28 0.29 0.34 0.36 0.35 0.39 0.34 0.34 0.34 0.33 0.35 0.35 0.36 0.42 0.38 0.39 0.39 0.35 0.35 0.35 0.35 0.28 0.45 0.44 0.46 0.42 0.48 0.48 0.46 0.50 0.42 0.41 0.31 0.34 0.35 0.35 0.37 0.46 0.45 0.45 0.45 0.42 0.38 0.34 0.35 0.31 0.28 0.23 0.20 0.27 0.25 0.21 0.18 0.18 0.16 0.20 0.27 0.31 0.30 0.29 0.29 0.28 0.29 0.28 0.28 0.30 0.31 0.31 0.29 0.27 0.27 0.28
0.45 0.34 0.38 0.56 0.57 0.54 0.41 0.29 0.29 0.32 0.26 0.22 0.23 0.26 0.23 0.30 0.26 0.28 0.33 0.34 0.36 0.32 0.41 0.38 0.39 0.37 0.37 0.38 0.41 0.42 0.40 0.37 0.39 0.37 0.38 0.33 0.39 0.38 0.43 0.50 0.48 0.50 0.45 0.40 0.43 0.52 0.51 0.46 0.39 0.33 0.35 0.35 0.41 0.47 0.53 0.53 0.51 0.48 0.47 0.40 0.42 0.39 0.37 0.29 0.21 0.23 0.26 0.25 0.26 0.24 0.21 0.22 0.34 0.37 0.36 0.36 0.35 0.33 0.34 0.33 0.30 0.30 0.31 0.31 0.31 0.31 0.30 0.31
0.44 0.38 0.51 0.59 0.58 0.49 0.38 0.30 0.32 0.30 0.28 0.29 0.34 0.31 0.30 0.28 0.27 0.30 0.29 0.32 0.31 0.35 0.35 0.35 0.35 0.35 0.40 0.41 0.42 0.42 0.42 0.37 0.38 0.35 0.38 0.38 0.38 0.41 0.46 0.47 0.50 0.48 0.50 0.45 0.49 0.53 0.58 0.43 0.36 0.36 0.42 0.45 0.48 0.53 0.55 0.56 0.53 0.47 0.49 0.50 0.45 0.38 0.38 0.34 0.31 0.32 0.29 0.29 0.26 0.25 0.22 0.23 0.39 0.42 0.42 0.44 0.43 0.40 0.37 0.35 0.32 0.30 0.30 0.31 0.32 0.33 0.33 0.32
0.47 0.44 0.44 0.54 0.58 0.51 0.37 0.26 0.26 0.28 0.29 0.32 0.32 0.28 0.29 0.26 0.27 0.28 0.28 0.32 0.31 0.32 0.32 0.34 0.37 0.42 0.39 0.45 0.45 0.40 0.45 0.32 0.40 0.38 0.36 0.40 0.35 0.46 0.46 0.47 0.50 0.45 0.46 0.46 0.43 0.56 0.42 0.45 0.40 0.32 0.30 0.32 0.39 0.45 0.46 0.53 0.52 0.46 0.44 0.48 0.49 0.48 0.45 0.43 0.41 0.40 0.29 0.29 0.30 0.26 0.20 0.23 0.38 0.43 0.43 0.44 0.44 0.44 0.43 0.43 0.41 0.37 0.35 0.35 0.36 0.35 0.36 0.37
0.49 0.53 0.49 0.47 0.53 0.51 0.36 0.38 0.34 0.31 0.28 0.25 0.27 0.23 0.22 0.23 0.30 0.31 0.29 0.31 0.35 0.35 0.35 0.34 0.39 0.42 0.43 0.46 0.44 0.45 0.46 0.40 0.34 0.41 0.40 0.39 0.38 0.45 0.45 0.46 0.49 0.46 0.52 0.58 0.59 0.65 0.49 0.45 0.40 0.30 0.25 0.23 0.23 0.25 0.30 0.35 0.41 0.46 0.49 0.48 0.50 0.47 0.44 0.40 0.32 0.33 0.27 0.30 0.32 0.28 0.26 0.30 0.43 0.47 0.47 0.48 0.48 0.47 0.48 0.49 0.49 0.48 0.44 0.40 0.38 0.38 0.38 0.39
0.44 0.33 0.39 0.41 0.45 0.46 0.45 0.48 0.42 0.36 0.30 0.25 0.25 0.24 0.24 0.17 0.25 0.32 0.31 0.32 0.36 0.37 0.37 0.38 0.42 0.44 0.42 0.43 0.40 0.39 0.39 0.45 0.38 0.34 0.37 0.35 0.37 0.40 0.44 0.47 0.48 0.51 0.56 0.62 0.63 0.63 0.50 0.51 0.47 0.42 0.36 0.33 0.36 0.40 0.48 0.50 0.46 0.40 0.43 0.46 0.47 0.49 0.49 0.46 0.42 0.34 0.29 0.31 0.30 0.31 0.32 0.32 0.37 0.43 0.44 0.47 0.48 0.48 0.50 0.53 0.54 0.54 0.54 0.51 0.45 0.41 0.40 0.40
0.53 0.39 0.38 0.33 0.42 0.41 0.39 0.42 0.38 0.38 0.30 0.31 0.23 0.25 0.19 0.18 0.22 0.28 0.33 0.29 0.36 0.35 0.36 0.39 0.40 0.38 0.38 0.40 0.37 0.38 0.38 0.38 0.41 0.38 0.36 0.35 0.38 0.41 0.47 0.46 0.51 0.55 0.59 0.60 0.63 0.60 0.51 0.44 0.46 0.46 0.45 0.45 0.48 0.47 0.50 0.51 0.44 0.46 0.44 0.44 0.48 0.47 0.47 0.43 0.38 0.34 0.42 0.36 0.28 0.35 0.40 0.36 0.36 0.42 0.46 0.47 0.48 0.50 0.51 0.52 0.54 0.56 0.56 0.55 0.50 0.45 0.42 0.42
0.43 0.45 0.49 0.48 0.40 0.33 0.35 0.35 0.39 0.36 0.36 0.33 0.26 0.27 0.20 0.18 0.21 0.20 0.29 0.34 0.36 0.38 0.32 0.38 0.41 0.42 0.42 0.40 0.40 0.33 0.34 0.35 0.35 0.31 0.36 0.36 0.36 0.41 0.42 0.48 0.48 0.54 0.59 0.58 0.62 0.55 0.49 0.41 0.46 0.48 0.45 0.49 0.51 0.51 0.52 0.51 0.50 0.48 0.48 0.47 0.45 0.48 0.47 0.42 0.41 0.44 0.43 0.36 0.30 0.38 0.41 0.39 0.42 0.45 0.47 0.47 0.48 0.48 0.50 0.47 0.51 0.55 0.58 0.59 0.57 0.49 0.42 0.40
0.55 0.51 0.50 0.55 0.41 0.42 0.42 0.42 0.42 0.38 0.34 0.31 0.27 0.24 0.19 0.17 0.19 0.26 0.27 0.28 0.32 0.34 0.37 0.30 0.35 0.41 0.42 0.44 0.41 0.35 0.34 0.27 0.27 0.36 0.35 0.34 0.35 0.37 0.36 0.41 0.49 0.55 0.55 0.53 0.56 0.59 0.53 0.43 0.46 0.49 0.45 0.45 0.47 0.49 0.51 0.50 0.50 0.50 0.48 0.48 0.48 0.48 0.47 0.47 0.46 0.47 0.45 0.42 0.44 0.42 0.43 0.42 0.46 0.47 0.45 0.47 0.51 0.56 0.58 0.60 0.60 0.59 0.58 0.57 0.54 0.48 0.41 0.39
0.50 0.47 0.42 0.52 0.50 0.44 0.44 0.43 0.39 0.35 0.29 0.30 0.20 0.21 0.19 0.20 0.21 0.24 0.30 0.29 0.26 0.30 0.37 0.34 0.36 0.41 0.43 0.44 0.43 0.37 0.36 0.38 0.37 0.32 0.36 0.37 0.36 0.40 0.40 0.40 0.42 0.50 0.53 0.49 0.52 0.58 0.51 0.41 0.49 0.48 0.43 0.41 0.45 0.48 0.49 0.49 0.49 0.46 0.49 0.50 0.49 0.49 0.48 0.49 0.47 0.46 0.45 0.44 0.47 0.46 0.44 0.43 0.51 0.53 0.50 0.53 0.54 0.60 0.67 0.62 0.60 0.62 0.67 0.60 0.56 0.50 0.46 0.41
0.63 0.62 0.57 0.46 0.40 0.42 0.43 0.41 0.37 0.33 0.28 0.25 0.20 0.20 0.22 0.23 0.22 0.26 0.27 0.34 0.32 0.30 0.34 0.34 0.38 0.40 0.44 0.44 0.42 0.40 0.42 0.41 0.42 0.40 0.41 0.41 0.35 0.43 0.40 0.40 0.49 0.43 0.47 0.48 0.50 0.52 0.53 0.44 0.50 0.47 0.39 0.36 0.42 0.44 0.45 0.47 0.47 0.46 0.46 0.46 0.47 0.46 0.42 0.45 0.44 0.48 0.44 0.43 0.46 0.46 0.43 0.44 0.55 0.59 0.53 0.54 0.58 0.64 0.61 0.62 0.58 0.57 0.58 0.52 0.45 0.39 0.35 0.34
0.71 0.68 0.63 0.53 0.41 0.45 0.39 0.41 0.39 0.33 0.24 0.28 0.25 0.23 0.24 0.23 0.27 0.26 0.22 0.32 0.35 0.38 0.39 0.39 0.40 0.40 0.39 0.40 0.38 0.41 0.44 0.43 0.43 0.45 0.46 0.48 0.50 0.49 0.50 0.50 0.51 0.47 0.45 0.47 0.52 0.48 0.49 0.46 0.42 0.42 0.37 0.34 0.40 0.45 0.43 0.43 0.40 0.34 0.39 0.46 0.49 0.50 0.51 0.52 0.54 0.54 0.52 0.52 0.45 0.42 0.45 0.58 0.58 0.60 0.53 0.51 0.59 0.62 0.63 0.62 0.57 0.56 0.56 0.55 0.50 0.47 0.46 0.45
Wind_Speed
21 21 22 22 23 23 23 23 23 23 24 24 24 25 25 25 26 26 26 26 27 27 27 28 28 29 29 30 30 31 31 31 31 31 31 30 30 30 30 30 30 30 30 30 29 29 29 28 28 28 28 29 29 30 30 31 31 31 31 33 36 36 36 34 32 32 31 30 28 26 26 26 26 26 26 25 24 24 24 24 23 22 23 27 30 32 33 33
21 22 22 23 23 23 23 23 24 24 24 24 25 25 26 26 26 26 26 27 27 27 28 28 29 29 29 30 30 31 31 31 31 31 29 28 28 29 29 29 29 29 29 29 29 29 28 28 28 28 29 29 29 29 30 31 31 32 32 33 36 36 35 33 33 33 32 32 30 27 27 27 27 27 26 25 25 25 25 24 23 21 21 25 29 32 35 36
22 22 23 23 23 23 24 24 24 25 25 25 25 25 26 26 26 27 27 27 28 28 28 29 29 29 30 30 30 31 31 31 30 27 27 27 27 27 28 28 28 28 28 28 29 29 28 29 29 29 29 30 30 30 30 30 31 32 33 35 36 35 34 34 34 35 35 34 33 32 30 29 29 28 27 26 26 26 26 26 24 23 22 23 27 31 34 36
23 23 24 24 24 24 24 25 25 25 25 25 26 26 26 26 27 27 27 28 28 28 29 29 29 30 30 30 30 30 30 29 27 25 26 26 26 26 26 27 26 27 27 27 27 28 28 28 28 29 29 29 29 29 29 30 30 32 34 36 36 33 34 35 35 35 35 35 36 35 33 32 31 30 29 28 27 28 27 26 25 25 25 23 25 29 32 35
23 24 24 24 24 24 25 25 26 26 26 26 26 26 26 27 27 27 28 28 28 29 29 30 30 30 30 30 31 30 29 27 25 25 26 26 26 26 25 25 24 24 24 24 24 25 26 26 27 27 28 28 28 28 28 29 30 31 34 36 36 34 35 36 36 36 35 35 36 36 34 33 32 31 31 29 29 30 29 27 26 26 26 25 26 30 33 35
24 25 25 24 25 25 25 26 26 26 26 26 26 27 27 27 27 28 28 29 29 30 30 30 30 30 31 31 30 29 27 26 26 26 26 26 25 25 24 23 22 22 22 21 21 21 22 22 23 24 25 25 26 26 27 28 28 30 32 33 35 34 34 36 36 36 36 35 35 35 35 34 33 33 32 31 31 32 32 30 28 27 27 27 28 31 35 38
25 25 25 25 25 26 26 27 27 26 26 27 27 27 27 27 28 28 28 29 30 30 31 31 31 30 31 30 29 27 26 27 27 26 25 24 24 24 23 21 20 20 19 18 18 17 18 19 19 21 21 22 23 24 25 26 27 29 30 31 32 33 33 34 35 36 36 36 36 36 36 35 35 34 33 33 32 32 33 32 30 28 27 28 29 31 35 39
25 25 25 25 26 26 27 27 27 27 27 27 27 27 28 28 28 28 29 30 30 31 31 31 31 30 30 29 27 26 26 26 25 24 23 22 22 21 20 19 17 17 16 15 15 14 15 15 17 17 17 18 19 21 22 23 25 26 27 28 30 31 32 32 33 34 36 36 36 36 36 36 36 35 35 35 34 34 34 33 31 29 27 28 29 31 34 38
25 25 25 26 26 27 27 27 27 27 27 28 28 28 28 28 28 29 30 30 31 31 31 31 30 29 28 28 27 26 26 24 23 22 20 19 19 17 16 14 13 13 13 13 13 13 13 14 15 15 15 17 19 19 20 21 22 23 25 26 28 29 30 30 30 32 33 32 32 34 35 36 37 35 35 36 34 34 34 33 32 30 29 28 28 29 31 35
26 26 26 26 27 27 27 27 27 27 28 28 29 29 29 29 29 29 30 30 31 31 31 30 29 28 27 27 25 25 24 22 20 19 17 16 15 14 13 11 11 11 12 13 13 13 13 14 15 15 16 17 17 18 19 20 21 22 24 26 27 28 28 28 27 28 30 29 31 33 35 36 37 36 36 36 34 34 35 35 34 33 32 30 29 29 29 31
26 26 27 27 27 27 27 27 28 28 29 29 29 29 29 29 29 30 30 30 31 31 30 29 28 27 26 26 24 23 22 19 17 15 14 13 13 12 12 10 10 11 12 13 14 14 14 15 15 15 15 15 16 17 18 20 21 22 23 25 26 27 27 27 25 25 25 26 29 31 34 36 36 37 37 37 36 35 36 37 36 35 34 33 32 30 29 30
26 27 27 27 27 28 28 28 28 29 29 30 30 29 29 29 29 30 30 30 30 30 29 28 27 26 25 25 22 20 19 17 15 13 12 12 12 12 11 11 10 11 11 13 14 14 15 15 14 15 15 15 16 16 17 19 20 21 22 23 25 25 25 26 25 25 24 24 26 27 31 35 35 37 38 37 38 37 37 38 38 37 36 34 33 32 31 30
27 27 27 27 28 27 28 28 28 29 30 30 30 29 29 30 30 30 30 30 29 28 28 27 26 25 24 22 20 18 17 15 14 13 12 12 12 12 11 11 10 10 11 13 14 14 15 16 15 15 16 16 17 16 17 18 18 20 20 21 22 23 24 24 24 25 24 24 24 24 28 33 34 36 37 37 38 38 38 39 39 39 38 36 35 34 33 31
27 27 27 28 28 28 28 29 29 29 30 30 29 30 30 30 31 31 30 29 28 27 27 26 25 23 21 20 18 16 15 14 13 12 11 10 10 10 10 10 11 11 11 12 13 13 14 15 15 15 15 16 17 17 17 17 16 17 19 20 20 21 23 23 24 24 24 24 22 22 26 30 31 33 35 36 36 37 39 39 39 39 39 38 37 36 35 34
27 27 28 28 28 28 28 29 29 29 29 29 29 30 30 30 31 30 29 28 27 26 25 24 23 21 20 18 16 15 14 12 11 10 9 8 9 9 10 10 11 11 11 11 12 12 13 14 14 14 14 15 15 16 16 16 16 16 17 18 19 20 21 22 24 23 24 24 22 22 25 28 29 30 32 35 35 35 38 39 38 40 40 39 38 37 37 35
28 28 28 28 28 28 29 29 29 29 29 29 30 30 30 30 31 29 27 26 26 26 25 23 21 18 17 16 14 14 13 10 10 10 9 9 9 9 10 11 11 12 12 12 12 12 12 13 12 13 13 14 13 14 14 14 15 15 15 17 18 19 19 20 22 23 23 24 23 23 25 28 26 25 27 31 33 34 37 38 37 39 41 40 39 38 37 36
28 28 28 28 28 28 29 29 28 29 29 30 30 30 29 30 30 27 25 25 26 25 23 21 19 16 14 14 14 13 12 11 10 10 10 10 10 11 11 11 12 12 13 13 12 12 12 12 11 12 12 12 12 12 13 13 13 14 15 15 16 17 18 18 19 20 20 21 23 23 25 28 26 22 22 25 29 31 34 36 36 38 40 40 40 39 38 36
28 29 29 29 28 28 28 28 28 29 30 30 30 30 28 29 28 25 23 24 25 23 21 19 17 15 13 13 13 13 13 12 10 10 11 11 11 12 12 12 12 13 13 13 13 12 12 11 10 11 11 11 11 10 12 13 13 14 15 15 16 16 17 18 18 17 16 18 21 22 24 27 26 23 22 23 26 28 31 34 34 36 39 40 39 39 38 36
29 29 29 29 28 28 28 28 29 29 30 30 30 28 27 27 26 23 23 24 23 21 19 17 14 13 13 13 13 15 14 12 10 11 12 12 12 13 13 13 13 12 12 12 12 12 11 11 10 10 12 12 11 11 12 14 14 15 16 16 16 17 18 18 18 17 16 18 20 21 24 26 25 25 24 24 25 26 28 31 31 32 36 38 37 37 38 36
29 29 29 29 28 28 28 28 29 30 30 30 29 27 26 27 25 23 24 24 21 19 17 15 13 13 13 14 14 15 14 12 11 13 14 14 13 13 13 14 13 12 11 11 12 12 11 11 11 12 12 12 12 12 13 14 14 15 16 16 17 18 19 18 19 18 17 18 19 21 23 23 24 25 26 26 26 25 26 28 29 31 34 36 36 36 37 36
30 30 29 29 28 28 28 28 29 30 30 28 28 27 26 26 25 24 25 24 22 19 17 15 14 13 13 14 14 15 15 13 13 15 15 13 12 12 13 12 12 12 13 13 14 13 12 13 14 14 13 14 14 13 13 13 14 14 15 16 17 18 19 19 19 19 17 17 19 20 21 21 21 22 24 25 25 24 24 27 29 30 33 36 36 36 37 36
30 30 30 29 28 28 28 28 29 30 29 27 26 26 26 26 25 25 24 23 22 19 16 16 14 14 14 15 14 14 14 14 14 15 14 13 12 13 13 12 12 13 14 15 15 14 14 15 15 14 14 14 14 14 13 14 15 15 15 15 16 16 17 18 19 18 16 16 18 19 20 20 19 18 19 23 24 23 24 26 29 30 32 35 36 36 37 37
30 30 30 29 28 28 28 28 29 28 27 26 26 26 26 26 26 25 23 21 21 19 15 15 14 13 14 13 13 13 14 14 14 15 15 14 14 14 14 14 15 17 17 16 15 15 15 15 14 14 14 14 15 15 14 15 16 16 17 17 17 16 16 17 17 17 17 17 19 20 21 22 20 18 19 22 24 24 23 24 26 28 30 33 36 37 37 38
30 30 29 29 28 28 28 28 27 27 26 26 26 26 27 27 26 25 23 19 19 18 15 14 13 13 13 13 14 14 14 14 14 15 16 16 16 16 15 14 16 19 18 16 16 17 18 17 15 13 14 14 16 16 15 15 17 17 18 18 19 18 18 18 18 18 18 19 19 19 21 23 22 21 21 22 22 23 24 24 25 27 29 31 34 36 38 39
30 29 29 29 28 28 27 26 25 26 26 25 26 27 27 27 26 24 21 18 18 17 14 14 13 12 14 15 15 14 13 13 14 15 16 17 18 16 15 14 16 17 17 15 16 18 18 18 15 13 14 15 15 15 15 15 16 17 17 18 18 18 19 19 18 17 17 18 17 15 17 21 22 22 23 22 22 23 24 24 26 27 28 30 32 35 37 38
30 29 29 28 27 27 26 24 24 26 25 25 27 28 28 27 25 22 19 18 18 16 15 14 12 13 16 16 17 15 13 13 15 16 17 18 18 16 16 15 15 16 15 14 15 17 17 16 15 13 14 15 15 15 15 14 16 17 16 15 16 17 18 18 18 17 16 17 17 14 15 19 22 23 24 23 23 24 24 24 26 27 28 29 31 33 36 37
30 29 28 27 27 26 24 23 25 26 24 25 27 28 27 26 24 21 19 17 17 16 15 14 13 15 16 17 18 15 13 15 16 18 19 19 18 17 16 15 14 14 13 13 14 14 13 14 15 14 13 13 14 14 14 14 15 16 14 13 15 16 17 18 18 18 17 17 18 17 17 19 22 25 24 23 24 25 25 26 26 26 28 29 30 32 35 36
29 28 28 27 26 25 23 23 25 25 24 26 27 27 27 25 22 21 18 16 17 17 15 15 15 16 17 17 17 14 14 16 17 19 21 20 18 15 14 14 12 12 10 10 12 11 10 11 13 14 13 13 13 13 13 14 15 15 14 13 15 16 16 16 17 17 16 16 19 19 18 18 22 25 24 22 25 27 27 28 27 27 28 29 30 31 33 35
29 28 27 27 25 24 23 24 24 24 25 26 27 27 26 24 22 20 17 15 17 16 14 16 16 17 17 16 15 16 16 17 18 21 23 19 16 14 13 12 11 10 8 7 10 11 11 12 13 13 14 14 14 13 13 15 16 15 14 14 15 16 16 16 16 17 16 15 20 22 19 18 22 25 24 24 26 28 28 28 28 28 28 29 29 30 32 33
28 27 27 26 24 23 24 24 24 24 26 27 27 27 25 23 22 19 17 17 17 16 16 17 16 16 17 15 15 17 18 17 20 22 21 17 15 14 12 10 9 9 7 7 10 12 13 12 12 11 13 13 13 13 13 14 15 13 13 15 15 16 16 16 16 16 15 17 23 24 20 20 22 24 25 25 27 28 27 28 28 29 29 30 30 30 30 31
28 26 26 24 23 23 24 25 25 25 26 27 28 27 23 22 22 18 18 19 17 16 17 16 15 16 17 16 16 18 18 19 21 21 19 16 13 13 11 10 11 10 9 10 10 11 11 9 7 6 8 8 8 10 10 11 11 12 12 13 13 13 13 14 15 14 15 19 22 21 19 21 23 25 26 25 27 29 28 29 30 30 31 31 31 31 31 31
27 26 25 23 22 23 24 24 25 26 27 28 28 26 22 21 22 20 19 20 16 16 17 16 16 15 15 16 17 19 19 19 20 20 18 14 11 11 11 11 11 11 11 12 12 12 10 7 6 7 8 6 6 8 9 9 9 10 10 10 11 11 11 12 14 14 17 21 21 17 17 21 24 28 29 28 28 30 30 30 30 31 32 33 33 32 32 32
26 25 24 22 22 23 24 24 25 26 27 28 27 25 22 20 21 22 21 19 16 17 17 15 15 15 15 17 17 19 19 19 20 20 17 13 10 10 10 10 11 10 10 12 12 12 11 9 8 9 9 7 7 8 9 8 7 7 9 11 12 12 12 14 15 15 18 21 22 19 18 21 24 27 31 31 30 30 31 31 31 31 32 33 33 33 33 33
26 24 22 22 22 23 24 24 25 25 27 27 25 24 24 21 21 22 21 18 16 17 16 15 15 15 15 16 17 18 19 19 20 19 16 11 10 10 10 11 10 10 11 11 11 11 10 10 8 8 8 7 7 7 6 6 6 5 7 9 12 13 13 15 15 16 18 19 20 19 19 22 24 25 27 29 29 29 31 32 33 33 33 33 32 32 32 33
24 23 22 22 23 23 23 23 24 24 26 26 24 24 24 22 22 22 20 19 18 17 17 15 14 14 15 16 17 18 19 19 20 19 14 10 10 9 10 11 10 10 12 11 11 11 10 9 9 9 9 7 7 7 5 6 6 5 3 4 8 10 11 12 14 16 16 18 19 19 20 22 23 23 24 25 26 28 29 31 33 34 34 34 33 32 32 32
22 22 22 23 24 23 23 23 23 24 25 24 24 24 23 22 23 22 20 20 19 18 17 15 13 14 15 17 17 18 19 19 19 18 13 10 10 9 9 10 9 9 12 12 12 12 10 10 11 11 10 7 7 7 5 5 6 5 3 4 6 6 6 8 10 11 11 14 15 16 19 22 22 24 25 26 27 28 28 29 31 32 34 35 34 34 33 32
21 21 22 24 24 24 23 23 23 23 24 23 23 24 23 22 23 22 21 20 19 19 16 14 13 14 16 17 18 19 20 19 18 16 13 10 10 9 9 9 8 9 11 12 12 12 11 12 11 10 9 7 8 9 7 7 6 6 5 5 5 5 5 5 7 7 8 11 13 13 17 20 18 19 22 24 27 29 29 29 29 30 31 32 33 34 32 32
21 20 22 24 24 24 23 22 23 23 23 22 23 23 23 23 23 22 21 20 19 18 16 13 13 14 16 18 19 20 21 19 18 16 13 10 9 10 9 8 9 10 10 11 13 12 11 12 11 9 8 9 12 12 11 9 8 9 8 7 5 5 6 5 6 7 7 10 12 11 14 17 16 16 18 21 25 27 28 28 28 29 29 30 31 31 30 31
21 20 21 24 25 24 23 21 22 23 22 22 23 23 23 23 23 23 22 21 19 17 16 14 13 13 16 18 20 21 19 18 18 15 11 10 10 10 8 8 10 11 10 10 12 12 11 11 11 11 11 13 15 13 12 11 9 10 10 9 8 8 7 7 8 8 8 10 12 11 11 13 13 13 15 18 21 23 25 26 26 27 29 30 31 30 31 32
21 19 20 24 26 24 22 20 22 22 21 21 22 22 22 22 23 24 23 22 19 17 15 14 13 15 16 19 20 20 17 16 15 12 10 10 11 10 8 10 12 13 13 12 11 12 12 10 11 14 15 16 15 13 12 12 11 10 10 10 11 10 9 10 11 10 9 10 11 11 12 14 12 11 13 16 16 18 22 24 26 26 28 31 32 32 32 33
21 19 20 23 25 23 21 20 21 21 21 21 22 22 23 22 23 24 24 22 18 16 15 13 14 16 17 19 20 19 16 14 12 10 9 10 10 10 10 12 13 14 14 14 13 13 13 12 13 16 17 16 16 14 13 13 11 10 11 11 11 11 11 11 11 11 12 13 12 11 14 16 13 11 12 13 12 13 17 22 25 27 28 30 31 33 33 33
20 19 20 23 24 22 20 19 20 20 21 21 21 22 23 23 23 23 23 21 18 17 15 13 14 16 17 18 19 17 15 13 11 10 9 9 10 10 11 13 14 13 13 14 14 14 14 15 15 17 17 17 18 16 13 12 11 11 12 12 11 12 11 11 11 11 12 14 14 12 14 15 12 9 9 9 9 12 15 18 22 26 29 30 31 33 34 35
20 19 20 22 23 22 19 18 20 20 21 21 21 23 24 23 22 23 22 20 18 17 15 13 14 16 17 18 17 15 13 11 10 10 10 10 10 9 10 13 14 13 13 14 16 16 16 16 16 18 18 16 16 14 14 14 11 11 13 12 12 13 14 14 13 12 12 13 12 11 12 13 11 9 10 9 9 11 13 16 19 23 27 30 32 34 35 35
20 20 20 21 22 22 19 18 20 20 21 21 21 23 25 23 22 23 22 20 19 17 15 14 14 16 18 18 16 13 12 11 10 10 10 10 9 9 11 13 13 13 14 15 16 18 18 16 16 19 18 16 16 15 16 17 15 13 14 14 13 14 15 16 15 15 15 13 12 12 14 14 11 10 11 11 13 15 16 17 19 22 26 30 33 35 36 36
20 19 20 21 21 21 20 18 19 20 21 21 21 23 25 24 22 22 22 20 18 16 14 14 16 17 18 17 14 12 11 10 9 10 10 10 9 10 11 12 13 14 15 16 17 17 18 17 17 17 16 16 17 17 17 19 18 16 15 15 15 13 13 14 15 15 15 13 12 14 16 16 13 11 12 13 15 18 18 20 21 22 25 29 33 36 37 37
20 19 20 20 20 20 21 19 19 20 21 21 21 22 24 24 22 22 21 19 18 16 14 14 16 18 19 18 14 12 10 9 9 10 10 10 9 10 11 13 14 14 15 17 18 17 17 18 17 15 14 15 17 19 20 21 19 17 17 17 17 14 11 11 12 14 14 14 15 17 18 20 18 14 15 16 17 19 19 19 21 21 23 27 32 36 38 38
20 19 19 20 19 19 21 21 21 21 21 20 20 22 24 23 22 21 21 19 18 17 15 14 16 19 20 19 16 12 10 9 8 9 9 9 9 10 12 13 14 15 16 18 19 19 18 19 18 16 14 16 18 20 21 21 19 18 18 19 19 18 14 10 10 12 11 10 14 14 13 17 19 15 14 14 14 15 16 17 19 20 21 25 31 35 38 38
21 19 19 19 18 18 19 21 22 21 21 20 20 21 23 23 22 21 20 19 19 17 15 15 17 19 20 19 16 13 11 10 9 9 9 9 10 12 13 13 14 15 17 18 19 19 18 19 20 18 17 19 20 20 21 21 19 17 17 19 21 22 19 13 10 11 9 7 11 11 10 12 15 14 11 9 7 7 9 11 13 16 18 22 28 33 36 38
20 20 19 19 19 18 18 20 21 20 20 21 20 21 22 22 22 21 20 19 18 17 16 16 17 19 20 18 15 13 12 11 9 9 9 10 11 12 13 14 14 16 18 19 19 19 18 18 20 19 18 20 21 20 21 22 20 17 16 18 21 22 20 16 14 13 9 7 10 11 11 11 11 9 8 5 3 1 3 6 8 10 14 20 26 30 34 36
20 19 20 19 19 18 19 20 20 19 19 20 20 21 21 21 22 21 19 18 18 17 16 17 18 19 19 18 15 12 11 9 8 8 8 9 10 10 11 13 14 16 19 20 20 19 18 19 20 19 17 20 23 22 22 24 21 18 18 22 24 24 22 19 19 18 14 9 9 8 8 8 7 5 4 3 3 4 4 5 7 8 11 16 22 27 30 31
20 19 19 19 18 18 19 20 19 18 18 19 20 20 21 21 21 21 19 17 17 17 17 17 19 19 18 18 16 12 11 9 7 7 7 7 8 8 10 12 14 17 19 20 20 19 18 19 20 18 16 19 24 24 24 24 21 20 26 30 28 25 24 20 19 20 19 14 11 9 8 7 7 6 4 4 5 6 7 7 7 7 8 10 15 20 24 27
21 20 19 18 17 18 19 19 19 17 18 19 20 20 20 20 21 21 19 17 18 19 18 17 18 18 17 19 18 15 13 11 8 7 7 7 6 6 8 10 13 16 17 18 19 19 19 19 19 18 15 18 24 25 23 23 22 24 30 33 28 24 23 20 18 21 22 17 13 12 10 7 6 6 6 5 6 7 6 7 7 7 7 8 11 15 21 26
Wind_Direction
335 334 332 331 330 328 327 326 324 323 323 321 320 319 318 318 317 316 314 313 312 310 309 308 307 306 305 304 303 302 302 300 298 295 291 288 285 282 281 281 280 279 276 275 273 272 271 269 266 263 261 258 256 254 252 250 248 247 244 244 245 245 245 246 246 246 248 250 246 244 244 242 243 244 244 242 244 248 245 242 241 236 233 231 227 221 214 213
335 334 332 332 331 330 329 327 326 325 324 322 321 320 319 319 317 316 315 314 313 311 310 309 308 307 306 305 304 304 303 300 298 295 291 290 287 284 283 282 281 279 276 275 273 272 271 268 265 264 262 258 256 254 252 250 247 245 245 245 246 246 248 248 246 246 247 248 246 243 244 243 242 242 242 241 243 245 243 243 246 241 237 233 226 219 214 213
335 334 333 332 331 331 330 329 327 326 324 323 322 321 320 319 318 317 316 315 313 312 311 311 310 309 308 307 306 305 304 301 298 294 293 294 291 287 285 285 283 280 277 274 272 271 269 267 265 264 262 259 256 253 251 250 248 246 245 246 248 249 249 248 247 247 246 247 246 244 244 244 242 242 240 237 240 242 239 240 242 241 239 235 226 218 217 217
336 335 333 332 332 331 330 329 327 326 325 323 322 321 320 319 319 318 317 315 314 314 313 312 311 310 309 308 307 306 304 301 297 294 295 295 293 290 287 287 285 281 279 276 272 270 268 267 265 264 261 259 256 252 251 250 249 247 245 247 250 250 249 248 247 248 247 247 246 245 245 244 242 241 239 235 238 240 238 238 240 239 238 234 226 222 223 223
336 335 334 332 332 331 330 329 327 326 325 324 323 322 321 320 319 318 317 316 315 315 314 313 311 310 309 308 307 305 304 302 297 295 295 294 293 292 289 288 286 282 280 277 274 270 268 266 265 264 261 259 257 254 252 249 248 250 248 249 250 249 249 249 248 248 248 247 246 245 243 242 241 240 238 235 235 236 236 239 241 239 236 230 225 225 227 227
337 335 334 333 332 331 330 329 328 327 326 324 323 322 322 321 320 319 318 317 317 316 314 313 312 311 309 308 307 304 302 300 297 296 295 293 292 291 289 287 285 282 281 280 277 273 270 268 266 265 261 260 258 254 253 250 249 251 251 250 250 249 249 249 248 247 247 245 243 242 240 239 239 238 237 234 234 235 235 238 239 238 234 227 224 226 229 228
337 336 334 333 332 332 331 330 329 328 326 325 324 323 323 322 321 320 319 318 317 316 315 313 312 311 310 309 307 303 301 299 297 296 294 293 292 291 289 286 284 283 283 282 279 274 271 270 268 265 263 261 258 254 253 252 249 250 251 250 250 250 249 248 247 246 245 244 242 241 240 237 236 237 236 233 233 235 236 237 236 236 233 226 225 226 228 228
337 336 335 334 333 332 332 330 330 328 327 326 325 324 323 322 321 320 320 319 318 318 316 314 313 311 310 310 307 305 301 299 299 297 294 293 293 293 292 287 284 284 283 281 277 275 274 273 270 266 263 260 260 258 256 254 251 250 251 250 250 250 248 248 247 245 244 244 243 241 239 237 236 237 236 233 234 235 234 234 233 233 232 229 229 228 230 228
337 336 335 335 334 333 333 331 330 329 328 327 326 325 324 323 322 321 321 321 320 319 317 316 314 312 311 310 309 307 302 300 300 298 295 295 295 296 295 289 284 285 284 280 275 274 274 273 270 267 266 266 265 262 258 254 251 250 252 252 250 248 248 247 247 246 244 242 239 238 238 239 238 237 237 234 234 234 232 233 233 232 232 233 231 230 231 226
338 337 336 336 335 334 333 332 331 330 329 328 327 326 325 323 323 322 322 322 322 321 319 317 316 314 313 311 310 308 304 303 301 298 297 297 297 298 297 289 285 287 286 284 279 273 271 270 270 272 273 272 270 266 260 255 254 255 255 254 250 248 248 246 247 248 246 240 235 236 238 238 237 236 235 235 234 234 233 234 234 233 233 233 230 231 232 226
338 338 338 337 336 336 334 334 333 331 330 329 328 327 325 324 324 323 323 323 323 322 320 319 318 316 313 311 310 308 307 307 303 300 299 298 298 298 297 289 284 287 287 287 282 276 271 269 274 277 274 275 275 272 266 260 261 261 259 256 252 249 247 245 245 247 246 240 236 238 239 238 236 234 233 235 235 234 233 233 233 232 231 231 229 231 231 227
339 339 338 338 337 336 335 334 333 332 331 330 329 328 327 325 324 324 323 323 323 323 322 321 320 319 316 312 309 309 311 310 305 303 299 297 299 298 296 290 285 282 283 285 283 280 275 274 279 278 275 279 278 273 268 267 266 264 259 256 253 250 247 244 241 243 242 239 238 240 243 239 235 234 235 236 237 235 234 232 232 231 229 229 227 228 229 228
340 339 339 339 338 337 336 335 334 333 332 332 331 329 328 326 325 324 323 322 322 322 322 322 322 321 320 315 311 312 313 310 306 302 297 295 301 299 291 288 288 284 284 286 286 283 278 277 279 276 278 280 276 272 272 271 266 263 257 252 253 252 246 240 238 241 242 240 239 241 245 243 238 237 238 239 238 237 235 232 231 230 228 228 226 227 227 226
340 340 340 339 338 337 336 336 335 334 334 333 332 330 329 327 326 325 323 322 322 323 323 323 323 323 322 317 315 315 312 310 308 304 298 294 298 303 295 289 290 289 291 293 293 290 282 280 280 277 278 279 277 277 275 270 263 262 259 253 252 251 246 240 238 242 244 241 239 242 247 245 243 242 240 239 238 237 236 232 230 230 228 227 226 228 227 224
341 340 340 339 338 337 337 337 336 336 336 335 333 331 330 329 327 326 325 324 324 325 325 324 324 325 324 320 320 321 316 313 309 306 304 296 296 304 302 295 294 294 295 296 297 295 288 284 283 279 279 281 283 281 275 268 263 260 260 257 252 249 250 246 240 237 240 241 238 242 248 246 247 248 243 239 236 235 235 230 227 228 228 228 228 230 229 226
341 340 339 338 338 338 338 338 337 338 337 336 335 333 331 331 330 328 328 327 327 326 325 325 324 326 326 323 326 327 322 317 310 307 304 297 293 298 303 300 298 297 295 294 295 293 288 286 284 280 281 284 283 280 278 273 266 259 256 258 256 253 254 250 242 236 238 243 241 241 247 248 249 251 244 236 233 233 232 228 223 225 227 227 228 230 230 228
341 340 339 338 338 338 338 338 338 338 338 337 337 335 332 333 333 332 331 331 330 327 326 326 325 325 322 322 328 328 324 320 310 306 305 299 292 293 299 300 299 297 293 292 291 288 286 286 287 286 286 285 281 281 279 273 268 263 257 257 257 254 253 250 245 240 241 245 244 244 246 248 248 248 242 232 229 230 229 226 221 222 225 226 227 228 229 229
341 340 339 339 338 338 339 339 339 339 339 338 338 336 335 336 336 335 335 334 332 332 331 329 329 330 324 321 327 327 324 319 311 308 307 304 295 291 294 299 303 301 300 296 289 285 283 284 287 289 290 288 284 278 271 267 264 263 262 260 260 256 251 247 242 240 245 248 247 247 246 247 246 244 238 229 227 226 225 225 220 219 223 225 226 227 226 226
341 340 339 339 339 339 339 339 339 340 340 340 340 339 339 339 339 337 337 337 337 338 336 333 335 337 328 321 324 326 324 319 316 314 308 305 298 291 291 298 301 301 305 305 293 285 282 285 287 284 284 284 281 274 266 264 261 262 264 261 261 259 253 248 243 241 250 254 248 246 246 246 246 242 236 230 228 225 223 224 220 217 220 223 223 224 222 222
341 340 339 340 339 339 339 339 340 340 341 342 342 342 343 343 342 340 339 339 339 339 337 335 332 329 324 322 325 329 329 325 320 317 312 308 302 294 292 295 298 299 302 302 297 290 282 282 281 275 276 277 276 273 269 267 264 264 264 262 261 258 255 251 248 247 253 257 249 244 246 247 247 243 233 227 227 225 224 223 220 216 217 220 220 220 219 218
341 340 340 340 340 339 339 339 340 341 342 343 344 345 345 346 346 342 341 341 341 340 336 335 332 323 319 321 323 326 328 327 323 320 318 316 312 305 298 295 298 299 297 294 295 294 284 279 276 273 275 275 273 272 272 271 267 264 263 263 262 258 257 256 252 251 253 256 251 246 248 248 249 244 230 223 224 225 225 222 220 218 216 218 218 218 218 217
342 341 341 341 340 339 339 340 341 342 343 345 346 346 346 347 346 343 342 341 341 342 338 335 335 326 322 320 318 320 323 326 325 323 323 321 316 310 304 300 299 297 295 292 292 291 284 279 276 274 276 277 274 271 270 270 267 266 265 265 263 260 262 260 252 250 251 253 253 251 250 246 244 242 228 221 221 224 227 223 221 221 219 219 220 220 219 218
343 342 342 342 340 339 340 341 341 343 346 346 346 346 347 347 345 343 343 341 340 343 341 339 339 334 333 330 327 327 326 328 327 325 327 325 317 313 310 305 300 297 295 291 289 288 285 284 278 274 276 275 275 272 269 270 268 265 264 264 263 262 262 260 255 253 253 253 255 254 251 243 237 236 228 222 222 225 228 226 223 223 221 221 221 222 221 219
343 343 343 342 340 341 341 342 343 346 348 347 347 347 347 346 344 344 345 345 344 343 343 342 342 342 342 337 334 333 330 330 331 330 332 329 322 316 311 305 300 297 295 292 290 287 285 286 281 279 283 280 277 274 268 268 268 264 262 261 261 261 259 259 260 261 259 255 253 255 253 243 236 236 231 226 226 227 228 229 229 228 226 223 221 221 222 221
343 344 343 342 342 342 342 343 345 347 347 349 349 347 346 344 343 345 347 350 348 345 346 347 345 346 345 340 336 333 331 334 338 334 330 330 325 315 309 308 302 298 298 295 291 287 286 287 284 284 287 283 279 274 266 264 268 266 261 257 257 259 260 260 260 261 259 253 248 250 250 242 238 237 234 230 230 229 228 230 230 230 230 227 223 222 222 222
344 344 344 343 344 344 344 345 345 346 346 348 348 345 345 344 344 347 350 354 353 348 348 350 348 345 344 341 337 334 334 337 341 339 332 328 325 315 311 311 305 302 302 299 292 286 288 290 285 282 281 279 277 272 266 264 267 267 261 257 255 256 259 260 259 257 252 247 245 243 242 244 244 239 235 234 234 231 229 229 229 230 231 229 226 224 223 222
344 345 344 344 346 348 348 346 345 346 347 347 347 345 345 345 346 348 350 354 354 349 348 348 346 343 341 339 338 340 341 336 335 338 334 327 323 318 313 312 309 307 306 304 299 292 295 294 285 281 280 279 276 270 267 266 266 266 261 255 253 254 256 256 254 252 249 248 249 245 241 246 247 241 235 236 238 235 231 230 228 228 230 230 228 227 225 224
344 344 345 346 348 349 349 347 346 348 349 347 347 346 346 346 347 350 353 354 350 347 346 343 341 340 340 340 346 349 343 337 334 334 333 329 326 324 318 316 314 312 311 308 306 306 307 297 285 283 282 280 277 271 268 266 265 266 264 260 255 254 256 254 250 249 251 253 252 246 241 245 247 242 238 239 239 237 234 231 229 228 229 230 230 229 228 226
344 344 345 346 348 350 351 350 349 349 349 348 348 347 346 348 350 353 356 353 346 347 345 341 340 341 342 344 351 351 342 340 338 334 335 335 332 332 327 326 327 321 316 309 308 313 309 293 287 288 285 282 282 277 267 262 263 266 268 267 262 257 255 254 251 249 249 248 248 245 237 242 249 245 240 239 239 237 236 234 231 229 230 231 231 230 229 228
345 344 344 346 349 351 352 351 350 350 349 348 347 347 347 350 354 357 356 351 347 346 344 344 344 344 345 347 348 348 344 342 342 340 341 341 341 343 342 341 343 338 332 322 312 312 307 296 292 291 284 284 288 284 270 263 264 266 266 265 264 259 253 252 251 249 247 246 248 246 237 239 250 248 241 239 239 237 237 237 233 231 231 232 231 229 229 227
346 344 344 347 350 351 352 351 351 350 349 348 347 349 351 354 358 1 355 350 347 345 346 348 348 346 348 351 349 347 346 343 345 348 348 346 347 355 1 359 355 355 353 345 333 329 326 318 316 313 302 302 306 299 288 275 268 265 262 258 260 258 252 252 250 246 247 250 252 250 240 239 247 249 244 241 240 239 238 237 235 234 234 232 230 229 229 228
347 346 346 347 349 350 350 350 351 351 350 350 349 352 356 356 359 359 351 349 349 347 348 348 348 347 347 352 352 348 347 346 350 354 352 351 358 3 10 9 5 7 5 358 353 351 350 342 344 347 341 346 345 327 316 299 276 262 255 249 250 253 252 252 248 246 248 253 256 253 245 243 246 250 249 245 242 240 239 238 236 234 234 233 231 229 229 229
347 349 349 349 349 350 350 350 350 351 352 353 353 356 0 1 359 356 352 353 351 346 346 347 348 349 349 353 353 349 350 351 354 357 355 360 11 13 14 15 16 18 8 359 356 356 355 348 348 351 347 350 350 340 333 322 295 263 247 241 242 246 251 251 251 255 256 257 261 257 250 250 250 252 250 246 243 241 240 239 237 234 233 233 232 230 228 227
348 350 352 352 350 348 349 349 351 353 354 356 357 360 5 4 357 355 356 354 350 346 348 349 349 350 352 354 352 352 355 355 358 359 359 8 18 17 14 10 13 14 4 360 359 359 355 345 346 351 344 337 333 330 334 339 329 291 256 244 246 248 250 253 253 256 260 263 263 257 252 250 250 254 252 248 245 241 239 237 236 235 233 233 232 230 227 225
349 352 353 354 352 350 349 349 352 355 356 358 0 3 7 4 356 356 357 353 350 350 349 350 352 353 354 353 353 357 358 356 359 1 2 9 11 11 10 4 7 9 4 3 0 357 351 339 342 345 339 331 327 329 339 344 338 325 301 263 260 255 253 258 258 256 261 268 264 255 254 253 254 258 256 250 246 240 237 236 234 234 233 232 231 228 225 224
351 354 354 354 354 353 352 351 353 357 358 0 3 5 6 2 357 358 356 353 352 351 350 352 356 356 354 353 353 356 357 355 357 360 2 4 2 5 6 0 7 12 7 3 357 355 348 340 346 348 340 337 334 332 334 330 328 329 318 291 286 274 258 263 269 267 264 268 263 254 258 260 260 261 254 248 246 239 235 235 231 231 232 230 229 227 225 224
354 354 354 355 355 354 353 353 356 358 359 2 5 6 4 0 359 359 356 354 353 352 355 357 356 356 355 353 352 353 354 354 358 0 1 2 1 3 4 2 7 11 6 360 355 355 346 337 343 346 338 342 346 336 321 306 305 309 300 299 313 310 289 276 284 288 273 269 270 262 262 262 260 262 254 245 243 239 235 235 231 229 229 228 227 226 226 225
353 353 355 356 355 355 354 355 358 359 0 3 5 5 3 1 1 0 357 355 354 356 0 358 355 356 355 354 353 352 354 356 0 3 2 4 3 2 6 9 4 359 358 355 352 355 351 342 344 344 335 341 345 336 322 307 292 285 287 296 306 301 296 285 279 288 281 280 286 277 268 264 256 259 257 245 240 237 234 232 230 227 225 225 225 225 225 224
353 354 356 356 356 356 356 357 359 1 2 4 5 4 2 2 2 1 359 358 358 0 2 358 355 356 356 356 353 353 357 359 359 4 8 8 3 1 10 13 360 352 351 351 352 355 354 347 346 347 344 341 339 332 326 321 307 294 290 289 284 280 286 283 277 287 287 284 291 290 282 272 259 259 261 252 243 236 229 227 227 226 224 223 223 224 224 223
355 356 356 356 356 356 358 359 360 2 3 3 4 3 0 1 1 360 1 2 1 3 2 357 356 356 356 356 354 355 360 360 360 6 12 8 2 4 13 10 359 352 347 343 347 354 352 343 338 341 342 339 334 332 330 327 322 312 298 290 286 283 287 288 281 281 283 285 290 291 288 281 271 265 264 256 244 233 227 227 228 226 225 224 223 224 224 223
356 356 354 355 357 357 0 1 359 1 3 2 3 2 0 1 1 359 1 3 4 5 3 359 359 358 356 355 357 0 2 3 5 9 9 7 7 10 8 1 356 351 347 345 349 355 351 340 331 332 336 335 330 331 328 322 320 318 308 301 296 291 290 292 288 278 273 276 280 284 289 289 279 264 260 254 239 227 224 225 227 226 225 225 224 225 225 223
356 355 354 356 358 359 3 1 357 0 4 2 1 1 1 2 2 0 1 3 5 4 2 3 1 358 356 356 359 3 5 5 7 8 7 6 5 4 357 352 348 346 347 350 352 353 348 341 331 327 330 329 327 332 334 324 315 312 310 305 299 293 284 280 288 290 280 275 277 280 285 289 281 262 260 254 237 231 230 229 228 226 226 227 225 225 226 224
355 353 353 356 358 1 4 0 358 1 2 360 360 0 0 1 2 2 1 2 4 4 3 5 3 359 359 0 1 5 7 6 6 8 8 5 3 1 353 348 346 349 353 355 356 355 350 346 340 334 335 336 339 351 359 353 341 324 317 308 295 290 282 275 281 293 291 279 279 283 280 281 281 269 261 256 250 250 246 240 235 230 229 229 228 226 225 223
352 351 353 356 359 2 4 1 360 359 358 359 0 360 360 2 3 4 3 3 4 6 6 6 4 2 2 3 3 4 8 8 5 6 8 8 8 3 352 346 348 356 0 359 1 359 352 350 347 343 346 354 0 7 7 3 358 344 334 326 307 290 282 279 279 283 285 275 267 275 279 280 286 282 269 260 256 255 251 245 241 237 234 231 227 225 224 221
353 353 353 354 358 2 4 3 2 358 356 360 1 0 1 2 2 3 3 4 4 6 8 5 1 0 2 4 3 1 6 9 3 5 10 9 8 7 358 351 354 359 359 356 358 357 353 352 349 346 350 354 353 353 353 354 354 348 344 339 328 308 288 282 277 274 279 276 263 265 274 281 288 287 277 267 259 256 253 248 243 239 236 231 226 223 221 218
356 355 354 353 356 1 1 1 3 359 357 1 1 360 2 2 1 1 3 4 4 4 4 2 0 0 3 5 3 358 3 8 4 7 10 8 11 14 5 358 360 1 357 354 358 1 358 356 352 347 344 342 338 337 341 346 348 345 345 347 346 338 314 296 284 277 278 279 273 268 272 281 287 283 274 271 267 261 256 247 238 236 235 230 224 220 218 215
355 354 355 355 354 357 357 357 360 358 356 0 1 359 1 3 1 2 4 4 3 1 1 3 3 2 1 2 3 358 359 4 4 7 11 9 13 10 1 1 5 3 1 1 4 5 0 358 358 352 344 342 338 336 341 348 349 347 348 351 354 352 342 323 299 290 290 287 283 280 277 282 290 291 281 277 274 264 255 244 233 230 229 223 218 215 213 212
354 352 355 356 353 354 355 352 352 353 353 357 360 359 1 3 2 3 4 3 2 1 2 3 2 360 357 359 4 1 356 1 5 11 15 11 11 10 6 7 8 6 8 7 5 5 2 359 2 359 351 350 348 345 348 353 354 356 357 357 359 359 359 355 330 314 314 300 294 298 295 291 299 307 304 296 290 268 250 237 228 224 220 214 209 208 207 208
354 352 351 354 352 351 350 346 345 350 354 356 358 359 1 1 1 3 4 3 3 2 2 0 357 356 357 359 4 1 356 357 359 4 11 9 8 12 11 9 8 9 10 6 4 8 7 1 2 1 355 356 357 357 360 1 3 9 9 7 6 4 5 7 1 352 345 319 308 310 309 310 315 320 324 331 337 278 212 206 206 207 205 202 200 201 202 203
354 352 349 351 351 348 349 347 348 354 358 359 359 359 360 1 1 2 4 5 3 1 1 359 354 355 357 360 2 357 350 350 348 350 2 3 4 12 13 10 10 8 7 5 7 12 10 3 3 4 1 2 3 4 8 11 14 19 17 12 10 9 10 13 15 14 9 352 340 336 331 336 345 345 355 43 76 86 105 133 156 168 176 182 187 191 194 195
352 350 349 351 350 350 352 351 352 357 358 358 359 358 358 -0 360 1 4 5 4 1 359 357 355 355 359 1 1 353 344 343 336 330 340 347 355 10 13 9 9 6 4 6 10 12 11 5 5 8 7 3 4 6 7 10 18 24 19 13 10 10 12 16 20 21 16 8 5 9 8 7 13 26 55 87 85 82 87 95 108 120 127 146 169 180 184 187
351 350 350 351 349 350 353 352 353 358 357 356 357 357 357 358 359 4 6 4 2 359 357 357 356 357 1 2 360 351 340 333 327 324 335 343 347 358 3 3 5 5 4 7 10 13 13 8 7 12 10 1 3 5 3 10 24 26 16 11 9 11 14 17 21 21 20 20 23 22 19 16 21 40 69 85 78 79 90 94 96 99 107 132 159 171 177 180